RH
71 76 59 56 58 58 57 57 59 61 61 64 62 62 62 65 68 67 71 75 81 82 78 78 78 78 91 82 90 91 91 92 91 99 98 98 96 95 91 84 75 76 74
65 61 58 56 54 57 56 56 58 61 59 58 58 59 59 59 60 59 58 72 77 80 74 79 77 65 82 80 69 86 92 87 74 98 98 99 99 97 92 87 78 75 72
59 53 53 53 56 62 58 57 58 58 57 55 57 59 58 57 58 58 58 62 70 74 73 75 78 79 83 80 78 77 76 78 72 80 97 99 99 98 95 88 88 84 73
45 46 52 53 61 59 65 59 59 57 56 57 58 57 56 54 55 55 58 61 60 62 67 68 68 75 79 75 79 84 83 84 88 89 95 98 99 97 97 95 80 73 72
50 48 54 60 62 72 69 60 58 57 56 56 57 56 51 48 48 54 55 57 60 60 61 60 68 76 86 86 63 77 81 78 87 95 98 98 97 98 94 82 81 67 73
46 48 59 67 64 71 67 66 61 61 60 58 55 52 51 41 81 83 64 52 54 57 59 58 67 72 78 86 82 83 81 80 80 75 76 79 85 79 73 72 68 76 89
53 51 62 73 70 79 72 75 66 72 67 64 60 57 60 61 83 81 77 50 54 56 56 53 46 45 57 56 76 73 72 77 82 82 88 82 83 86 87 79 78 73 76
70 58 65 71 73 77 79 80 75 72 70 71 63 72 65 66 85 82 81 56 58 57 57 56 56 58 63 57 49 51 54 63 65 47 66 63 68 64 68 64 72 72 66
81 69 65 67 70 78 81 81 82 83 76 73 64 76 68 69 87 88 88 56 58 59 60 70 57 54 88 82 53 55 53 46 70 80 75 76 75 72 65 40 68 38 47
84 79 60 70 71 78 84 80 88 79 73 67 72 69 80 71 88 88 77 47 59 60 61 64 86 70 77 75 56 55 57 53 48 58 59 66 65 59 60 60 37 34 34
85 74 73 90 92 86 82 86 79 78 80 79 68 69 68 74 76 88 83 53 62 58 48 54 62 74 74 71 73 57 66 64 54 49 42 35 35 36 32 42 54 38 36
90 78 78 87 83 88 84 90 89 92 93 89 73 67 60 69 90 86 85 79 69 53 57 46 47 76 73 70 53 74 73 69 33 34 34 32 29 29 31 39 51 50 40
85 87 94 92 94 87 92 96 96 96 98 94 70 57 58 58 62 88 83 80 77 58 49 60 72 76 76 53 64 66 77 34 28 29 29 30 30 32 46 48 44 58 63
89 91 92 94 99 98 97 93 91 88 94 87 68 70 70 56 58 59 57 56 72 53 60 43 56 62 68 55 44 46 29 28 30 29 30 29 28 29 29 29 29 28 28
85 86 88 91 96 99 100 100 99 94 91 71 63 74 61 58 56 73 65 50 47 51 52 50 40 38 39 36 32 30 30 32 30 30 30 30 28 28 29 28 31 30 30
78 73 73 80 83 90 92 96 98 98 99 97 91 75 60 82 85 79 75 73 73 72 43 36 39 37 32 27 28 29 29 36 31 31 31 30 30 30 31 30 29 30 32
80 70 66 72 72 84 84 90 96 92 95 94 89 85 76 81 84 80 76 71 72 69 44 37 36 33 29 27 26 27 28 31 48 32 32 32 30 30 32 30 30 30 30
75 91 61 58 66 72 78 75 64 72 87 78 86 74 89 85 84 83 80 80 44 51 38 34 34 32 28 29 28 29 30 32 32 32 32 31 31 31 30 30 28 31 30
65 57 57 57 57 62 65 67 67 73 67 61 60 70 78 84 81 78 79 45 38 34 33 31 31 29 29 30 33 36 40 33 31 32 32 32 31 30 30 28 27 48 43
69 76 69 54 52 56 54 54 50 49 46 44 48 49 53 59 52 50 47 44 37 28 27 26 27 28 30 34 36 36 34 38 38 34 31 30 31 31 30 31 31 30 29
58 61 62 48 43 39 35 34 32 32 31 28 29 34 58 42 32 34 35 33 26 24 24 24 22 27 30 34 33 33 30 28 28 27 28 30 33 31 32 31 30 31 30
53 61 41 37 28 24 23 21 21 21 23 25 26 37 66 34 22 24 25 24 23 24 22 25 23 23 24 30 41 30 28 28 28 29 32 34 34 33 32 31 31 31 30
57 72 45 36 28 35 23 21 22 23 23 24 24 26 26 27 24 23 23 23 23 24 26 27 27 24 25 31 32 32 29 30 32 35 37 37 36 34 33 33 30 27 25
50 72 57 43 32 39 29 31 25 34 27 26 28 30 27 25 24 26 24 24 27 29 31 30 29 27 27 32 32 30 30 34 36 33 37 37 35 34 26 23 19 17 18
47 68 60 60 60 52 38 32 42 44 37 44 44 47 33 32 34 32 39 28 32 34 35 35 33 35 38 39 30 33 61 82 46 58 26 30 26 26 23 19 20 19 20
52 56 56 52 56 46 35 42 39 46 50 52 42 42 32 31 32 38 38 40 44 39 36 32 33 36 38 37 37 63 77 72 52 79 32 20 19 20 19 22 23 19 21
Wind_Speed
8 4 9 8 7 7 4 4 6 4 4 4 3 5 5 7 6 5 8 8 8 8 8 10 8 10 6 6 4 3 3 4 6 4 3 4 4 5 6 6 7 7 8
8 5 9 8 7 7 5 5 4 4 4 4 5 6 7 8 8 8 9 9 9 8 10 10 11 9 10 9 8 8 6 4 8 8 3 2 4 5 4 6 6 6 6
10 11 10 9 8 5 6 4 4 4 4 5 5 6 7 7 8 8 8 9 8 8 8 9 9 8 8 6 6 6 8 6 7 8 4 2 2 2 4 5 3 4 3
11 10 9 10 8 7 5 5 5 4 4 4 5 5 6 6 7 7 8 8 8 10 11 12 12 11 10 7 6 8 9 9 8 8 6 3 3 1 1 1 3 2 2
10 9 8 9 8 7 5 5 5 4 4 4 4 4 4 5 7 6 6 7 8 9 10 12 12 14 16 17 8 9 7 10 7 6 4 2 2 2 3 3 3 4 3
13 9 8 8 10 8 7 6 6 4 4 3 3 3 5 7 9 10 8 7 7 7 8 8 8 12 13 13 12 15 13 8 9 7 6 6 6 5 5 5 4 4 2
10 10 9 7 9 8 8 7 7 4 4 2 2 4 6 7 6 8 11 6 6 7 6 6 7 7 7 10 8 12 14 12 8 7 7 7 6 4 2 2 2 1 2
4 7 8 9 10 9 9 9 7 7 6 4 3 4 7 6 5 7 10 5 5 6 7 8 8 7 10 8 10 10 10 11 10 9 9 8 7 7 6 2 3 3 3
3 6 9 11 10 10 9 9 10 7 7 6 5 5 6 6 1 7 9 5 5 6 7 9 7 7 10 13 8 8 8 8 8 10 9 7 5 5 6 7 3 6 4
3 10 6 9 10 10 9 9 8 9 9 7 5 6 5 7 2 5 7 3 4 4 6 7 11 8 8 10 2 4 4 4 4 8 6 5 6 3 5 6 8 7 6
3 2 1 2 3 4 9 8 10 10 8 6 8 6 7 6 6 0 7 4 3 4 3 5 6 6 7 9 9 6 4 3 4 5 6 4 3 4 6 5 6 8 7
5 1 2 2 4 5 9 8 8 8 8 7 9 8 7 6 4 5 2 6 6 6 4 4 4 2 3 6 2 3 5 7 5 2 2 3 4 5 5 4 1 3 3
3 3 3 2 4 4 5 5 6 7 6 6 8 8 7 7 6 7 5 5 5 4 4 6 8 3 2 5 2 7 7 7 2 1 4 4 3 4 5 5 4 6 8
5 4 4 2 1 3 0 5 6 6 5 2 7 6 4 6 7 8 7 6 5 5 7 5 3 4 5 0 5 8 1 5 5 4 3 3 2 2 3 3 5 4 5
3 3 4 4 3 3 4 4 3 2 2 9 8 5 7 7 5 7 4 7 7 6 7 5 6 8 9 7 4 1 2 4 1 3 3 3 2 3 3 3 3 4 5
4 5 5 6 4 4 4 3 12 8 7 9 11 2 7 10 12 12 9 8 9 10 7 8 9 8 3 3 3 4 5 2 2 2 2 3 3 3 4 4 3 3 4
5 5 5 4 6 5 6 5 5 4 9 9 8 8 7 10 10 10 7 7 5 5 7 9 5 4 3 3 3 1 4 5 2 1 2 2 3 3 3 3 3 3 5
7 2 7 6 5 7 7 6 6 8 6 5 2 3 8 10 9 8 7 4 6 8 9 8 6 4 4 4 3 3 3 5 4 1 2 2 3 4 4 4 5 4 5
6 8 6 6 6 7 8 8 9 9 9 9 8 5 6 6 6 5 6 8 10 10 10 6 5 5 4 4 2 1 3 2 4 4 4 3 3 4 5 6 6 4 2
7 5 7 8 8 8 9 11 12 12 11 10 9 10 10 9 8 9 9 10 10 8 6 6 6 5 6 4 5 4 6 8 8 7 5 3 5 5 8 10 10 9 8
5 6 9 11 10 9 9 9 6 6 7 8 9 11 14 12 11 10 10 10 8 6 5 5 7 8 5 6 6 6 6 6 5 4 5 4 6 7 8 8 8 13 11
6 8 7 11 8 8 8 7 7 9 9 9 8 9 12 11 8 8 9 8 7 5 6 6 6 5 6 4 4 5 5 7 7 5 5 6 6 8 8 10 10 8 10
6 6 9 7 7 5 7 8 8 9 10 10 11 11 10 9 8 7 7 7 6 6 4 3 5 6 2 3 1 3 5 6 5 4 5 6 7 8 9 9 11 10 10
7 6 8 6 9 3 7 8 8 8 7 7 6 10 11 10 8 7 6 4 3 2 2 4 4 7 4 4 3 4 3 6 4 3 3 6 8 8 8 8 9 10 9
8 7 9 3 3 3 8 13 4 1 2 2 3 3 7 6 5 6 4 5 4 4 5 6 6 6 5 7 3 10 8 6 6 7 6 9 8 7 8 8 8 8 9
9 11 9 8 9 12 11 3 3 1 3 5 4 4 3 2 1 3 3 3 4 6 10 7 6 7 8 7 5 12 6 4 2 5 6 7 7 6 6 6 9 8 9
Wind_Direction
157 186 142 140 130 117 124 91 64 47 39 102 95 94 81 77 59 51 95 60 35 28 13 24 21 29 48 33 55 63 105 132 114 88 75 59 63 65 56 56 60 69 67
159 153 137 142 133 121 103 84 89 70 74 67 64 64 60 59 54 59 55 67 51 39 39 39 34 38 25 22 47 53 53 78 115 116 104 88 67 54 62 79 72 57 70
163 172 157 146 129 114 128 124 123 117 86 70 70 69 64 62 66 61 60 77 77 61 43 57 50 40 53 42 51 61 59 62 110 127 111 83 95 85 76 65 75 88 77
193 169 153 140 137 150 150 159 145 111 100 90 78 78 80 76 71 69 73 66 72 79 64 53 48 40 33 52 53 75 79 75 78 97 97 90 82 105 123 162 111 60 108
182 164 162 144 156 149 166 172 147 137 106 105 109 105 100 65 47 48 79 77 71 74 81 77 65 59 50 43 49 50 99 104 99 101 102 105 126 175 190 168 167 162 169
191 184 161 183 166 157 176 183 166 148 154 152 133 114 84 71 16 9 24 75 79 76 74 80 119 100 71 56 58 53 47 87 116 127 143 145 158 149 158 185 153 196 159
192 167 163 195 166 168 171 182 167 161 163 174 143 115 87 93 20 1 339 84 88 87 73 60 74 57 76 91 94 77 59 49 64 86 87 84 83 50 25 187 230 278 90
238 182 161 187 192 178 193 166 184 156 169 185 191 104 115 88 3 338 340 99 88 79 86 80 68 68 35 44 81 71 62 49 36 63 59 45 45 8 345 145 187 158 163
73 242 189 201 193 175 191 189 178 162 169 177 181 135 140 135 5 334 330 148 101 89 61 35 85 74 11 3 95 104 105 102 79 85 98 106 81 27 351 305 188 288 224
210 270 246 219 202 177 187 199 184 171 168 182 161 161 131 145 175 346 336 224 120 96 122 111 58 50 13 7 97 114 94 80 107 147 154 177 193 128 56 32 351 341 335
238 276 244 336 340 201 202 201 180 174 167 170 170 151 177 158 163 85 357 114 165 208 116 78 69 33 25 3 351 12 37 342 186 219 201 190 197 142 73 40 22 342 352
48 201 172 332 218 220 230 200 174 164 161 175 166 177 163 171 131 157 51 33 31 102 156 116 117 108 38 4 345 9 318 295 259 266 246 76 6 26 34 32 40 347 3
180 154 85 62 322 313 220 168 155 151 169 186 183 177 167 179 153 115 119 100 101 142 162 102 116 173 231 142 281 280 278 251 342 17 35 45 22 70 281 230 246 214 218
177 165 174 205 220 309 184 157 164 167 183 180 171 174 171 185 165 172 168 163 130 151 137 148 177 255 269 61 194 233 47 14 2 18 12 7 321 347 347 13 330 338 316
179 184 188 170 167 103 45 356 202 149 199 190 181 198 190 195 165 97 132 176 182 139 137 170 202 212 209 199 151 80 82 175 87 30 358 352 354 335 13 339 331 323 329
216 213 207 180 156 155 157 112 44 36 31 58 51 46 102 76 104 98 92 83 101 140 198 191 211 220 199 145 174 148 144 168 41 38 33 14 0 351 8 309 344 335 332
245 249 225 235 158 177 178 163 129 62 57 48 61 64 79 123 115 124 139 139 154 161 239 225 205 181 180 176 183 184 130 78 273 6 357 26 351 353 247 354 342 332 354
240 342 257 213 188 174 184 199 177 168 159 158 99 118 115 128 129 147 160 162 188 219 261 243 185 176 189 183 185 183 164 171 186 307 299 334 341 332 318 330 309 24 343
238 245 216 240 216 203 179 184 181 194 196 158 143 168 143 123 142 173 186 229 203 203 218 221 165 177 195 186 163 160 351 354 22 327 286 267 304 298 303 296 302 227 245
221 288 235 216 206 205 208 201 210 197 194 162 176 181 168 168 185 193 205 221 242 223 197 194 171 193 193 191 171 208 214 193 202 226 252 317 288 306 323 327 325 314 307
218 220 225 242 222 224 223 223 213 194 187 178 193 155 163 193 190 187 190 207 228 211 189 211 178 182 211 183 228 217 239 256 248 272 287 312 339 311 305 306 298 295 312
239 283 200 236 222 214 222 203 190 193 186 185 149 136 172 226 215 179 195 189 207 212 190 201 242 221 200 220 184 233 281 299 299 299 319 312 291 299 297 287 289 288 286
229 269 262 238 251 207 214 209 197 200 190 187 166 160 190 223 243 188 196 201 199 195 190 219 265 269 270 82 264 279 273 294 1 348 297 291 298 295 305 308 297 296 301
217 239 276 216 249 201 221 248 216 217 217 207 194 166 187 202 225 234 227 204 132 162 189 206 237 276 252 239 197 207 95 28 339 294 294 287 292 291 296 305 292 296 296
225 220 251 203 253 239 223 233 245 125 234 146 249 240 191 190 227 248 244 158 188 203 217 221 217 208 205 217 186 74 78 44 24 333 286 279 282 292 277 278 292 296 297
232 209 223 206 217 233 221 187 187 41 282 313 257 211 160 144 280 80 110 155 175 216 232 213 208 190 178 187 127 98 89 55 22 359 310 279 272 274 283 307 294 289 293